Location: Fouquenies
(49.4624°N, 2.0492°E)
Time: 07:03:39
(UTC+00:00)

Cosmos 2333 - Pass Details

Date: 03 February 2023
Orbit: 828 x 867 km, 70.9° (Epoch: 22 March)

Event Time Altitude Azimuth Distance (km) Brightness Sun altitude
Rises 18:33:09 0° 186° (S) 3,359 7.5 -16.8°
Reaches altitude 10° 18:35:39 10° 180° (S) 2,433 6.7 -17.2°
Maximum altitude 18:40:55 44° 109° (ESE) 1,142 4.5 -18.1°
Enters shadow 18:43:24 28° 56° (ENE) 1,537 5.1 -18.5°
